Tracking 28514 objects as of 23-Feb-2024
HD Live streaming from Space Station
objects crossing your sky now

FREGAT R/B

Track FREGAT R/B now!


NORAD ID: 40891
Int'l Code: 2015-045C
Perigee: 23,464.6 km
Apogee: 23,614.7 km
Inclination: 55.2 °
Period: 858.0 minutes
Semi major axis: 29910 km
RCS: Unknown
Launch date: September 11, 2015
Source: Commonwealth of Independent States (former USSR) (CIS)
Launch site: FRENCH GUIANA (FRGUI)

Note: This is a ROCKET BODY
Your satellite tracking list
Your tracking list is empty




NASA's NSSDC Master Catalog

Two Line Element Set (TLE):
1 40891U 15045C   24053.88406584  .00000045  00000-0  00000-0 0  9993
2 40891  55.1648 247.5564 0025094 227.1807 132.6218  1.67827684 51810
Source of the keplerian elements: AFSPC